Location: Mt. Graham
(32.7020°N, 109.8880°W)
Time: 14:42:31
(UTC-07:00)

RS-44 - Visible Passes

Search period start: 27 May 2024 00:00
Search period end: 06 June 2024 00:00
Orbit: 1174 x 1511 km, 82.5° (Epoch: 27 May)

Date Brightness Start Highest point End Pass type
(mag) Time Alt. Az. Time Alt. Az. Time Alt. Az.
27 May ? 03:05:08 10° N 03:12:20 65° E 03:19:54 10° SSE visible
28 May ? 01:38:15 10° NE 01:42:03 15° ENE 01:45:55 10° ESE visible
28 May ? 03:28:48 10° N 03:36:04 77° W 03:43:44 10° S visible
29 May ? 02:00:15 10° NNE 02:06:10 26° ENE 02:12:19 10° SE visible
29 May ? 03:52:50 10° NNW 03:59:41 46° W 04:06:56 10° SSW visible
30 May ? 02:23:12 10° N 02:30:07 44° E 02:37:24 10° SSE visible
30 May ? 04:17:18 10° NNW 04:23:11 27° W 04:29:20 10° SW visible
31 May ? 02:46:37 10° N 02:53:57 74° E 03:00:22 16° SSE visible
31 May ? 04:42:45 10° NW 04:46:34 15° W 04:50:30 10° WSW visible
01 Jun ? 01:19:07 10° NNE 01:23:47 17° ENE 01:28:34 10° ESE visible
01 Jun ? 03:10:22 10° NNW 03:17:38 68° W 03:23:10 21° S visible
02 Jun ? 01:41:30 10° NNE 01:47:52 30° ENE 01:53:32 13° SE visible
02 Jun ? 03:34:29 10° NNW 03:41:15 40° W 03:46:04 20° SSW visible
03 Jun ? 02:04:36 10° N 02:11:46 51° E 02:16:30 24° SE visible
03 Jun ? 03:59:07 10° NW 04:04:43 24° W 04:09:02 15° SW visible
04 Jun ? 00:39:23 10° NE 00:41:17 11° ENE 00:43:11 10° E visible
04 Jun ? 02:28:07 10° N 02:35:33 84° E 02:39:31 33° S visible
04 Jun ? 04:25:02 10° WNW 04:28:04 13° W 04:31:11 10° WSW visible
05 Jun ? 01:00:09 10° NNE 01:05:31 21° ENE 01:10:04 13° ESE visible
05 Jun ? 02:51:57 10° NNW 02:59:14 60° W 03:02:37 35° SSW visible
